Simultaneous Nadir Overpasses (SNOs) Predictions

Prediction of SNOs between LANDSAT-8 and METOP-A Satellite Orbit:

Table of predicted SNOs for the next 14.0 days since TLE Epoch: 2/24/2017
Index Date (LANDSAT-8) Time (LANDSAT-8) Lat,Lon (LANDSAT-8) SZA (LANDSAT-8 ) Date (METOP-A) Time (METOP-A) Lat,Lon (METOP-A) SZA (METOP-A ) Distance(km) Time Diff (sec)
1 02/25/2017 09:10:11 81.14, 82.27 91.77 02/25/2017 09:09:59 81.14, 82.11 91.75 2.75 12
2 02/25/2017 09:59:37 -81.16,-109.82 88.21 02/25/2017 10:00:38 -81.16,-109.97 88.20 2.56 61
3 02/28/2017 04:44:24 81.14, 148.72 90.73 02/28/2017 04:44:20 81.14, 148.76 90.74 0.84 4
4 02/28/2017 05:33:50 -81.16, -43.34 89.25 02/28/2017 05:34:59 -81.16, -43.28 89.21 1.19 69
5 03/02/2017 23:29:12 -81.13, 47.42 90.33 03/02/2017 23:28:03 -81.13, 47.37 90.37 1.13 69
6
